Mullan, ID

1:08 PM PDT on August 29, 2016 (GMT -0700)
Mullan Pass

Weather History for KMLP - August, 2013

Change the Weather History Date:

Monday, August 26, 2013

  Actual Average (K3TH) Record (K3TH)
Temperature  
Mean Temperature 54 °F -  
Max Temperature 64 °F 82 °F 96 °F (1996)
Min Temperature 44 °F 52 °F 48 °F (1998)
Degree Days  
Heating Degree Days 11    
Growing Degree Days 4 (Base 50)    
Moisture  
Dew Point 45 °F    
Average Humidity 81    
Maximum Humidity 100    
Minimum Humidity 48    
Precipitation  
Precipitation 0.45 in - - ()
Sea Level Pressure  
Sea Level Pressure 29.97 in    
Wind  
Wind Speed 6 mph (SSW)    
Max Wind Speed 14 mph    
Max Gust Speed 37 mph    
Visibility 6 miles    
Events Fog , Rain    
Averages and records for this station are not official NWS values.
T = Trace of Precipitation, MM = Missing Value Source: NWS Daily Summary

Daily Weather History Graph

Daily Weather History Graph

Search for Another Location

Airport or City:

Trip Planner

Search our weather history database for the weather conditions in past years. The results will help you decide how hot, cold, wet, or windy it might be!

Date:

Astronomy

Aug. 26, 2013 Rise Set
Actual Time 5:53 AM PDT 7:33 PM PDT
Civil Twilight 5:21 AM PDT 8:06 PM PDT
Nautical Twilight 4:41 AM PDT 8:45 PM PDT
Astronomical Twilight 3:58 AM PDT 9:28 PM PDT
Moon 10:17 PM PDT (8/26) 12:28 PM PDT (8/26)
Length of Visible Light 14h 44m
Length of Day
13h 39m
Waning Gibbous, 65% of the Moon is Illuminated
Aug 26
Waning Gibbous
Aug 28
Last Quarter
Sep 5
New
Sep 12
First Quarter
Sep 19
Full

Hourly Weather History & Observations

Time (PDT) Temp. Windchill Dew Point Humidity Pressure Visibility Wind Dir Wind Speed Gust Speed Precip Events Conditions
12:53 AM 51.1 °F - 48.9 °F 92% 29.81 in 10.0 mi NNW 4.6 mph - N/A   Scattered Clouds
1:02 AM 51.8 °F - 50.0 °F 94% 30.08 in 2.0 mi NNW 5.8 mph - N/A   Mostly Cloudy
1:05 AM 50.0 °F - 50.0 °F 100% 30.09 in 1.2 mi Variable 5.8 mph - N/A   Mostly Cloudy
1:10 AM 48.2 °F - 48.2 °F 100% 30.12 in 0.2 mi WSW 6.9 mph - N/A Fog Fog
1:20 AM 46.4 °F 40.4 °F 46.4 °F 100% 30.16 in 0.5 mi SW 13.8 mph 36.8 mph 0.27 in Fog , Rain Heavy Rain
1:25 AM 44.6 °F 38.8 °F 44.6 °F 100% 30.15 in 0.8 mi SW 11.5 mph 32.2 mph 0.32 in Rain Heavy Rain
1:27 AM 44.6 °F 39.2 °F 44.6 °F 100% 30.16 in 1.2 mi SSW 10.4 mph 32.2 mph 0.32 in Rain Rain
1:30 AM 46.4 °F 41.9 °F 44.6 °F 93% 30.15 in 2.0 mi SSW 9.2 mph 32.2 mph 0.33 in Rain Rain
1:38 AM 46.4 °F 44.3 °F 44.6 °F 93% 30.14 in 4.0 mi Variable 4.6 mph 18.4 mph 0.36 in Rain Rain
1:45 AM 46.4 °F 43.5 °F 44.6 °F 93% 30.13 in 3.0 mi SSW 5.8 mph - 0.39 in Rain Rain
1:53 AM 46.0 °F 41.9 °F 45.0 °F 96% 29.86 in 3.0 mi South 8.1 mph 17.3 mph 0.42 in Rain Rain
2:53 AM 46.9 °F - 45.0 °F 93% 29.82 in 10.0 mi South 8.1 mph - 0.03 in   Partly Cloudy
3:03 AM 46.4 °F 41.1 °F 44.6 °F 93% 30.09 in 2.5 mi South 11.5 mph 19.6 mph N/A   Partly Cloudy
3:08 AM 44.6 °F 39.2 °F 44.6 °F 100% 30.09 in 1.0 mi SSE 10.4 mph 19.6 mph N/A   Mist
3:13 AM 44.6 °F 39.2 °F 44.6 °F 100% 30.09 in 0.5 mi South 10.4 mph 18.4 mph N/A Fog Fog
3:26 AM 44.6 °F 40.2 °F 44.6 °F 100% 30.09 in 0.2 mi South 8.1 mph - N/A Fog Fog
3:34 AM 44.6 °F 40.7 °F 44.6 °F 100% 30.09 in 0.5 mi Variable 6.9 mph - N/A Fog Fog
3:41 AM 44.6 °F 41.4 °F 44.6 °F 100% 30.09 in 1.5 mi Variable 5.8 mph - N/A   Overcast
3:48 AM 44.6 °F 40.7 °F 44.6 °F 100% 30.09 in 2.0 mi SSE 6.9 mph - N/A   Overcast
3:49 AM 45.0 °F 41.2 °F 45.0 °F 100% 29.84 in 2.5 mi South 6.9 mph - N/A   Overcast
3:56 AM 46.4 °F 42.4 °F 44.6 °F 93% 30.10 in 4.0 mi South 8.1 mph - N/A   Overcast
4:53 AM 48.0 °F - 44.1 °F 86% 29.84 in 10.0 mi WSW 4.6 mph - N/A   Partly Cloudy
5:53 AM 46.9 °F - 44.1 °F 90% 29.86 in 10.0 mi South 3.5 mph - N/A   Clear
6:53 AM 46.9 °F - 44.1 °F 90% 29.88 in 10.0 mi South 5.8 mph - N/A   Clear
7:53 AM 50.0 °F - 45.0 °F 83% 29.88 in 10.0 mi SSE 4.6 mph - N/A   Clear
8:53 AM 52.0 °F - 46.0 °F 80% 29.89 in 10.0 mi South 8.1 mph - N/A   Clear
9:53 AM 57.0 °F - 46.9 °F 69% 29.89 in 10.0 mi Variable 3.5 mph - N/A   Clear
10:53 AM 60.1 °F - 46.0 °F 60% 29.89 in 10.0 mi Variable 3.5 mph - N/A   Clear
11:53 AM 60.1 °F - 43.0 °F 53% 29.89 in 10.0 mi Variable 3.5 mph - N/A   Clear
12:53 PM 63.0 °F - 44.1 °F 50% 29.88 in 10.0 mi Variable 4.6 mph - N/A   Clear
1:53 PM 64.0 °F - 44.1 °F 48% 29.89 in 10.0 mi SW 9.2 mph - N/A   Clear
2:53 PM 62.1 °F - 43.0 °F 50% 29.88 in 10.0 mi SW 6.9 mph - N/A   Clear
3:53 PM 62.1 °F - 45.0 °F 53% 29.88 in 10.0 mi Calm Calm - N/A   Clear
4:53 PM 63.0 °F - 46.0 °F 54% 29.87 in 10.0 mi Calm Calm - N/A   Clear
5:53 PM 61.0 °F - 42.1 °F 50% 29.88 in 10.0 mi Variable 3.5 mph - N/A   Mostly Cloudy
6:53 PM 60.1 °F - 45.0 °F 57% 29.88 in 10.0 mi Variable 4.6 mph - N/A   Partly Cloudy
7:53 PM 55.9 °F - 46.0 °F 69% 29.89 in 10.0 mi NNW 3.5 mph - N/A   Clear
8:53 PM 55.9 °F - 45.0 °F 67% 29.90 in 10.0 mi NW 3.5 mph - N/A   Clear
9:53 PM 57.9 °F - 44.1 °F 60% 29.87 in 10.0 mi Calm Calm - N/A   Clear
10:53 PM 57.0 °F - 44.1 °F 62% 29.87 in 10.0 mi Calm Calm - N/A   Partly Cloudy
11:53 PM 55.9 °F - 44.1 °F 64% 29.88 in 10.0 mi NNW 3.5 mph - N/A   Clear